[[{"header":{"parameterUnit":"m.s-1","parameterCategory":1,"la1":30.2992,"la2":30.254,"lo1":-89.0895,"lo2":-89.0443,"dy":0.0025,"dx":0.0025,"nx":19,"ny":19,"refTime":"2026-03-22T09:00:00:Z","depth":0,"parameterNumber":2,"parameterNumberName":"U-component_of_WINDS"},"data":[0,0,0,2.8958,2.8962,2.9153,2.9153,2.9401,2.9403,0,0,0,0,0,0,0,0,0,0,0,2.8903,2.8904,2.8957,2.8962,2.9152,2.9153,2.9401,2.9403,0,0,0,0,0,0,0,0,0,0,0,2.8902,2.8904,2.8906,2.8963,2.9152,2.9153,2.94,2.9255,0,0,0,0,0,0,0,0,0,0,2.907,2.902,2.8903,2.8906,2.8964,2.9152,2.9153,2.9248,2.9264,2.9316,0,2.9362,0,2.9386,2.942,2.9421,0,0,0,2.8962,2.9007,2.9056,2.8906,2.8966,2.9152,2.9066,2.9257,2.9275,2.9338,2.9365,2.9374,2.939,2.9422,2.9423,2.9718,2.972,0,0,2.8951,2.8938,2.9044,2.9068,2.9038,2.906,2.9072,2.9268,2.9298,2.9366,2.938,2.9394,2.9423,2.9425,2.9717,2.9719,0,0,0,2.8921,2.8931,2.8976,2.9058,2.9092,2.9066,2.908,2.9289,2.9305,2.9383,2.9397,2.9425,2.9428,2.9716,2.9718,2.9772,0,0,0,2.8915,2.8914,2.8971,2.8966,2.9088,2.9193,2.9097,2.9291,2.9314,2.9396,2.9425,2.943,2.9714,2.9717,2.9767,2.98,0,0,0,2.889,2.8911,2.8938,2.8964,2.9046,2.919,2.9217,2.9297,2.9323,2.9421,2.9431,2.9713,2.9716,2.9763,2.9793,2.9871,0,0,0,2.886,2.8987,2.8939,2.9087,2.9044,2.9222,2.9216,2.935,2.9441,2.9426,2.9714,2.9718,2.9762,2.9789,2.9866,2.9933,2.996,0,0,2.9013,2.9005,2.9093,2.9055,2.9238,2.9194,2.9386,2.9483,2.9506,2.9646,2.9654,2.9769,2.9792,2.987,3.012,3.0141,0,0,0,2.9137,2.9199,2.9251,2.9335,2.941,2.9477,2.9545,2.9581,2.97,2.9575,2.982,2.9835,2.9881,2.9913,2.9931,2.997,2.9733,2.9732,2.9732,2.9335,2.9354,2.95,2.9541,2.9624,2.9691,2.9759,2.9818,2.9817,2.9874,2.9916,3.0065,3.0102,3.0116,3.0156,2.9955,2.9955,2.9955,2.9955,2.9559,2.9649,2.9641,2.9778,2.9798,2.9915,2.9984,2.9978,3.0089,3.0036,3.0078,3.0015,3.0138,3.0175,2.9959,2.9959,2.9958,2.9958,2.9957,2.9689,2.9735,2.9775,2.9896,2.9988,3.0027,3.0133,3.0148,3.0164,3.0206,3.0249,3.0248,3.0247,3.0225,3.0226,3.0226,3.0227,3.0227,3.0228,2.9807,2.985,2.9936,3.0024,3.0079,3.0153,3.022,3.0275,3.0339,3.0342,3.0343,3.0333,3.0148,3.0099,3.0236,3.0234,3.0233,3.0232,3.0232,3.0023,2.9976,3.0109,3.0163,3.0267,3.0355,3.0373,3.0482,3.053,3.0581,3.0563,3.0424,3.0417,3.0403,3.0363,3.056,3.056,3.056,3.056,3.013,3.0128,3.0265,3.0351,3.0436,3.0465,3.0614,3.0667,3.0716,3.0746,3.072,3.0669,3.0654,3.0656,3.0636,3.0599,3.0851,3.0852,3.0852,3.0262,3.0269,3.0392,3.0436,3.0518,3.0587,3.0727,3.0825,3.0871,3.0864,3.0769,3.0757,3.0674,3.0647,3.0637,3.0606,3.0537,0,0]},{"header":{"parameterUnit":"m.s-1","parameterCategory":1,"la1":30.2992,"la2":30.254,"lo1":-89.0895,"lo2":-89.0443,"dy":0.0025,"dx":0.0025,"nx":19,"ny":19,"refTime":"2026-03-22T09:00:00:Z","depth":0,"parameterNumber":3,"parameterNumberName":"V-component_of_WINDS"},"data":[0,0,0,2.2676,2.2679,2.2829,2.2829,2.3019,2.3021,0,0,0,0,0,0,0,0,0,0,0,2.2632,2.2633,2.2676,2.268,2.2828,2.2829,2.3019,2.3021,0,0,0,0,0,0,0,0,0,0,0,2.2631,2.2633,2.2634,2.268,2.2828,2.2829,2.3018,2.2906,0,0,0,0,0,0,0,0,0,0,2.2762,2.272,2.2632,2.2634,2.2681,2.2828,2.2829,2.2901,2.2913,2.2951,0,2.2985,0,2.3006,2.3033,2.3034,0,0,0,2.2681,2.271,2.275,2.2634,2.2683,2.2828,2.2762,2.2908,2.2922,2.2968,2.2987,2.2994,2.3009,2.3035,2.3036,2.325,2.3251,0,0,2.2672,2.2659,2.2741,2.2759,2.2736,2.2757,2.2766,2.2916,2.2937,2.2988,2.2999,2.3012,2.3036,2.3037,2.3249,2.325,0,0,0,2.2648,2.2653,2.269,2.2751,2.2778,2.2761,2.2772,2.2931,2.2944,2.3001,2.3014,2.3037,2.3039,2.3248,2.325,2.3284,0,0,0,2.2643,2.2639,2.2686,2.2679,2.2775,2.2856,2.2783,2.2933,2.2951,2.3013,2.3037,2.3041,2.3247,2.3249,2.3281,2.3303,0,0,0,2.2622,2.2636,2.2658,2.2678,2.2741,2.2854,2.2876,2.2937,2.2959,2.3034,2.3042,2.3246,2.3249,2.3278,2.3299,2.3355,0,0,0,2.2596,2.2687,2.2658,2.2764,2.274,2.2874,2.2875,2.2976,2.3045,2.3038,2.3247,2.325,2.3277,2.3296,2.3352,2.3401,2.342,0,0,2.2704,2.27,2.2764,2.2741,2.2877,2.2852,2.2993,2.307,2.309,2.3195,2.3201,2.3282,2.3298,2.3355,2.3529,2.3544,0,0,0,2.2793,2.2839,2.2877,2.2942,2.3001,2.3054,2.311,2.3138,2.3228,2.3141,2.3318,2.3328,2.3362,2.3386,2.3398,2.3428,2.326,2.326,2.3259,2.2927,2.2946,2.3052,2.3089,2.3151,2.3206,2.3259,2.3306,2.3309,2.335,2.3382,2.3485,2.3513,2.3522,2.3553,2.3408,2.3409,2.3409,2.3409,2.3087,2.3154,2.3153,2.3255,2.3274,2.3361,2.3417,2.3416,2.3499,2.3463,2.3494,2.3453,2.3538,2.3566,2.3412,2.3411,2.3411,2.3411,2.341,2.3177,2.3213,2.3244,2.3337,2.3406,2.344,2.3519,2.3534,2.3549,2.3579,2.3614,2.3614,2.3615,2.3595,2.3595,2.3595,2.3596,2.3596,2.3596,2.326,2.3293,2.3358,2.3427,2.3468,2.3526,2.358,2.3622,2.3673,2.3677,2.3678,2.3676,2.3542,2.3509,2.3602,2.3601,2.36,2.36,2.3599,2.3416,2.3382,2.3482,2.3524,2.3605,2.3672,2.3689,2.3772,2.3809,2.3847,2.3838,2.3737,2.3735,2.3725,2.3697,2.3834,2.3834,2.3834,2.3834,2.3493,2.3492,2.3597,2.3662,2.3728,2.3753,2.3864,2.3907,2.3946,2.3969,2.3951,2.3915,2.3904,2.3909,2.3895,2.387,2.4047,2.4047,2.4047,2.359,2.3596,2.3689,2.3725,2.3788,2.3842,2.3947,2.4023,2.406,2.4056,2.3988,2.3979,2.3921,2.3902,2.3899,2.3877,2.383,0,0]}]]